Погода в Бедфорде

США     42°56′47″N   71°30′58″W
темп.,
°C
ветер,
м/с
пор.,
м/с
влажн.,
%
обл.,
%
осадки,
мм/ч
давл.,
гПа
погр.,
м
20 апреля, вт
вт2023:00+6зюз11935 0.0 101115
02:00+6зсз22933 0.0 101016
05:00+5з119194 0.0 101010
08:00+10ююз147316 0.0 1010173
11:00+16зюз6104894 0.0 10101850
14:00+15з8144964 0.1 10111922
17:00+14з61347100 0.0 10121936
20:00+9з512597 0.0 1014946
21 апреля, ср
ср2123:00+6з2571100 0.0 1015104
02:00+6з1367100 0.0 1015115
05:00+5всв1187100 0.6 101480
08:00+7вюв377499 0.6 1012535
11:00+16ююз51363100 0.1 10061765
14:00+17ююз61663100 1.5 10022267
17:00+16ю7166199 0.8 9971915
20:00+8з3119080 5.9 997473
22 апреля, чт
чт2223:00+2зсз7138397 0.0 999814
02:00−1зсз715755 0.0 9991017
05:00−1зсз714705 0.0 10001216
08:00+1зсз715565 0.0 10021706
11:00+4зсз81339100 0.0 10022453
14:00+5з81442100 0.0 10032738
17:00+5зсз7155198 0.1 10052372
20:00+2з5146013 0.2 10071551
23 апреля, пт
пт2323:00+2з614665 0.0 10071142
02:00+1зюз513685 0.0 1007954
05:00+3зюз61666100 0.0 10061342
08:00+5з614655 0.0 10071594
11:00+9зсз7123647 0.1 10071993
14:00+11зсз711375 0.1 10081825
17:00+11зсз611463 0.0 10081728
20:00+6зсз511665 0.0 1011881
24 апреля, сб
сб2423:00+7з513765 0.0 1011916
02:00+6з413777 0.0 1011666
05:00+7з514767 0.0 1012625
08:00+9зсз4126595 0.0 1014603
11:00+15зсз594664 0.0 10141773
14:00+18зсз573590 0.0 10132710
17:00+17з564543 0.0 10142001
20:00+10зсз1275100 0.0 101510